Time,TemperatureF,DewpointF,PressureIn,WindDirection,WindDirectionDegrees,WindSpeedMPH,WindSpeedGustMPH,Humidity,HourlyPrecipIn,Conditions,Clouds,dailyrainin,SoftwareType,DateUTC
2013-08-15 00:04:00,66.4,61.3,29.40,SW,225,0.0,3.0,84,0.00,,,0.00,meteohub,2013-08-15 07:04:00,
2013-08-15 00:09:00,66.2,61.9,29.40,SW,225,2.0,3.0,86,0.00,,,0.00,meteohub,2013-08-15 07:09:00,
2013-08-15 00:14:00,66.2,61.9,29.39,SW,225,2.0,2.0,86,0.00,,,0.00,meteohub,2013-08-15 07:14:00,
2013-08-15 00:20:00,66.0,61.7,29.39,SW,225,0.0,2.0,86,0.00,,,0.00,meteohub,2013-08-15 07:20:00,
2013-08-15 00:25:00,66.0,61.3,29.39,SW,225,0.0,2.0,85,0.00,,,0.00,meteohub,2013-08-15 07:25:00,
2013-08-15 00:30:00,65.7,61.0,29.39,SW,225,0.0,2.0,85,0.00,,,0.00,meteohub,2013-08-15 07:30:00,
2013-08-15 00:35:00,65.5,61.2,29.39,SW,225,0.0,2.0,86,0.00,,,0.00,meteohub,2013-08-15 07:35:00,
2013-08-15 00:40:00,65.3,61.3,29.39,SW,225,0.0,0.0,87,0.00,,,0.00,meteohub,2013-08-15 07:40:00,
2013-08-15 00:45:00,65.1,61.2,29.39,SW,225,0.0,0.0,87,0.00,,,0.00,meteohub,2013-08-15 07:45:00,
2013-08-15 00:50:00,65.3,61.7,29.39,SW,225,0.0,0.0,88,0.00,,,0.00,meteohub,2013-08-15 07:50:00,
2013-08-15 00:55:00,65.5,61.5,29.39,SW,225,0.0,1.0,87,0.00,,,0.00,meteohub,2013-08-15 07:55:00,
2013-08-15 01:00:00,65.7,62.1,29.39,SW,225,1.0,1.0,88,0.00,,,0.00,meteohub,2013-08-15 08:00:00,
2013-08-15 01:05:00,66.0,62.6,29.39,SW,225,4.0,4.0,89,0.00,,,0.00,meteohub,2013-08-15 08:05:00,
2013-08-15 01:10:00,66.4,62.8,29.39,SW,225,3.0,4.0,88,0.00,,,0.00,meteohub,2013-08-15 08:10:00,
2013-08-15 01:15:00,66.7,63.1,29.39,SW,225,3.0,4.0,88,0.00,,,0.00,meteohub,2013-08-15 08:15:00,
2013-08-15 01:20:00,66.7,63.1,29.39,SW,225,3.0,4.0,88,0.00,,,0.00,meteohub,2013-08-15 08:20:00,
2013-08-15 01:25:00,66.9,63.3,29.39,South,180,3.0,4.0,88,0.00,,,0.00,meteohub,2013-08-15 08:25:00,
2013-08-15 01:30:00,67.1,63.1,29.39,SW,225,2.0,4.0,87,0.00,,,0.00,meteohub,2013-08-15 08:30:00,
2013-08-15 01:35:00,67.1,63.1,29.39,SW,225,1.0,4.0,87,0.00,,,0.00,meteohub,2013-08-15 08:35:00,
2013-08-15 01:40:00,66.9,63.0,29.39,South,180,0.0,4.0,87,0.00,,,0.00,meteohub,2013-08-15 08:40:00,
2013-08-15 01:45:00,66.9,63.0,29.39,NE,45,0.0,2.0,87,0.00,,,0.00,meteohub,2013-08-15 08:45:00,
2013-08-15 01:50:00,66.9,63.0,29.39,NE,45,0.0,2.0,87,0.00,,,0.00,meteohub,2013-08-15 08:50:00,
2013-08-15 01:55:00,66.6,62.2,29.39,NE,45,0.0,0.0,86,0.00,,,0.00,meteohub,2013-08-15 08:55:00,
2013-08-15 02:01:00,66.4,62.1,29.39,NE,45,0.0,0.0,86,0.00,,,0.00,meteohub,2013-08-15 09:01:00,
2013-08-15 02:06:00,66.2,62.2,29.39,NE,45,0.0,0.0,87,0.00,,,0.00,meteohub,2013-08-15 09:06:00,
2013-08-15 02:11:00,66.0,62.1,29.39,NE,45,0.0,0.0,87,0.00,,,0.00,meteohub,2013-08-15 09:11:00,
2013-08-15 02:16:00,66.0,62.1,29.39,NE,45,0.0,0.0,87,0.00,,,0.00,meteohub,2013-08-15 09:16:00,
2013-08-15 02:21:00,65.8,61.9,29.39,NE,45,0.0,0.0,87,0.00,,,0.00,meteohub,2013-08-15 09:21:00,
2013-08-15 02:26:00,65.8,61.9,29.39,NE,45,0.0,0.0,87,0.00,,,0.00,meteohub,2013-08-15 09:26:00,
2013-08-15 02:31:00,65.7,62.1,29.39,NE,45,0.0,0.0,88,0.00,,,0.00,meteohub,2013-08-15 09:31:00,
2013-08-15 02:36:00,65.7,62.1,29.39,NE,45,0.0,0.0,88,0.00,,,0.00,meteohub,2013-08-15 09:36:00,
2013-08-15 02:41:00,65.7,62.1,29.39,NE,45,0.0,0.0,88,0.00,,,0.00,meteohub,2013-08-15 09:41:00,
2013-08-15 02:46:00,65.5,61.9,29.39,NE,45,0.0,0.0,88,0.00,,,0.00,meteohub,2013-08-15 09:46:00,
2013-08-15 02:51:00,65.3,61.7,29.38,NE,45,0.0,0.0,88,0.00,,,0.00,meteohub,2013-08-15 09:51:00,
2013-08-15 02:56:00,65.3,62.1,29.39,NE,45,0.0,0.0,89,0.00,,,0.00,meteohub,2013-08-15 09:56:00,
2013-08-15 03:01:00,65.3,62.1,29.39,NE,45,0.0,0.0,89,0.00,,,0.00,meteohub,2013-08-15 10:01:00,
2013-08-15 03:06:00,65.3,62.1,29.38,NE,45,0.0,0.0,89,0.00,,,0.00,meteohub,2013-08-15 10:06:00,
2013-08-15 03:11:00,65.3,62.1,29.39,NE,45,0.0,0.0,89,0.00,,,0.00,meteohub,2013-08-15 10:11:00,
2013-08-15 03:16:00,65.5,62.2,29.39,SE,135,0.0,0.0,89,0.00,,,0.00,meteohub,2013-08-15 10:16:00,
2013-08-15 03:21:00,65.7,62.2,29.39,SE,135,0.0,0.0,89,0.00,,,0.00,meteohub,2013-08-15 10:21:00,
2013-08-15 03:26:00,65.7,62.2,29.39,SE,135,0.0,0.0,89,0.00,,,0.00,meteohub,2013-08-15 10:26:00,
2013-08-15 03:31:00,65.8,62.4,29.39,South,180,0.0,0.0,89,0.00,,,0.00,meteohub,2013-08-15 10:31:00,
2013-08-15 03:36:00,66.0,62.4,29.39,South,180,0.0,1.0,88,0.00,,,0.00,meteohub,2013-08-15 10:36:00,
2013-08-15 03:41:00,66.2,62.6,29.39,SW,225,2.0,2.0,88,0.00,,,0.00,meteohub,2013-08-15 10:41:00,
2013-08-15 03:46:00,66.2,62.6,29.39,SW,225,2.0,2.0,88,0.00,,,0.00,meteohub,2013-08-15 10:46:00,
2013-08-15 03:52:00,66.2,62.6,29.39,SW,225,1.0,2.0,88,0.00,,,0.00,meteohub,2013-08-15 10:52:00,
2013-08-15 03:57:00,66.2,62.6,29.39,SW,225,3.0,3.0,88,0.00,,,0.00,meteohub,2013-08-15 10:57:00,
2013-08-15 04:02:00,66.2,62.6,29.38,SW,225,3.0,3.0,88,0.00,,,0.00,meteohub,2013-08-15 11:02:00,
2013-08-15 04:07:00,66.2,62.2,29.39,SW,225,2.0,3.0,87,0.00,,,0.00,meteohub,2013-08-15 11:07:00,
2013-08-15 04:12:00,66.2,62.6,29.39,SW,225,1.0,3.0,88,0.00,,,0.00,meteohub,2013-08-15 11:12:00,
2013-08-15 04:17:00,66.2,62.2,29.38,SW,225,0.0,3.0,87,0.00,,,0.00,meteohub,2013-08-15 11:17:00,
2013-08-15 04:22:00,66.0,62.4,29.38,SW,225,0.0,2.0,88,0.00,,,0.00,meteohub,2013-08-15 11:22:00,
2013-08-15 04:27:00,66.2,62.6,29.38,SW,225,0.0,2.0,88,0.00,,,0.00,meteohub,2013-08-15 11:27:00,
2013-08-15 04:32:00,66.2,62.6,29.38,SW,225,0.0,0.0,88,0.00,,,0.00,meteohub,2013-08-15 11:32:00,
2013-08-15 04:37:00,66.2,62.6,29.38,SW,225,0.0,2.0,88,0.00,,,0.00,meteohub,2013-08-15 11:37:00,
2013-08-15 04:42:00,66.2,62.6,29.38,SW,225,2.0,2.0,88,0.00,,,0.00,meteohub,2013-08-15 11:42:00,
2013-08-15 04:47:00,66.2,62.6,29.38,SW,225,0.0,2.0,88,0.00,,,0.00,meteohub,2013-08-15 11:47:00,
2013-08-15 04:52:00,66.2,62.6,29.38,SW,225,2.0,2.0,88,0.00,,,0.00,meteohub,2013-08-15 11:52:00,
2013-08-15 04:57:00,66.2,62.6,29.38,SW,225,2.0,2.0,88,0.00,,,0.00,meteohub,2013-08-15 11:57:00,
2013-08-15 05:02:00,66.0,62.4,29.38,SW,225,0.0,2.0,88,0.00,,,0.00,meteohub,2013-08-15 12:02:00,
2013-08-15 05:07:00,66.0,62.4,29.38,SW,225,0.0,2.0,88,0.00,,,0.00,meteohub,2013-08-15 12:07:00,
2013-08-15 05:12:00,66.0,62.4,29.38,NE,45,0.0,2.0,88,0.00,,,0.00,meteohub,2013-08-15 12:12:00,
2013-08-15 05:17:00,66.0,62.1,29.37,West,270,0.0,0.0,87,0.00,,,0.00,meteohub,2013-08-15 12:17:00,
2013-08-15 05:22:00,66.0,62.1,29.37,West,270,0.0,0.0,87,0.00,,,0.00,meteohub,2013-08-15 12:22:00,
2013-08-15 05:27:00,65.8,61.9,29.37,West,270,0.0,0.0,87,0.00,,,0.00,meteohub,2013-08-15 12:27:00,
2013-08-15 05:32:00,65.7,62.1,29.38,West,270,0.0,0.0,88,0.00,,,0.00,meteohub,2013-08-15 12:32:00,
2013-08-15 05:37:00,65.7,62.1,29.37,West,270,0.0,0.0,88,0.00,,,0.00,meteohub,2013-08-15 12:37:00,
2013-08-15 05:42:00,65.5,61.9,29.38,West,270,0.0,0.0,88,0.00,,,0.00,meteohub,2013-08-15 12:42:00,
2013-08-15 05:47:00,65.5,61.9,29.37,South,180,0.0,0.0,88,0.00,,,0.00,meteohub,2013-08-15 12:47:00,
2013-08-15 05:52:00,65.5,61.9,29.38,South,180,0.0,0.0,88,0.00,,,0.00,meteohub,2013-08-15 12:52:00,
2013-08-15 05:57:00,65.5,61.9,29.38,South,180,0.0,0.0,88,0.00,,,0.00,meteohub,2013-08-15 12:57:00,
2013-08-15 06:02:00,65.3,62.1,29.38,South,180,0.0,0.0,89,0.00,,,0.00,meteohub,2013-08-15 13:02:00,
2013-08-15 06:07:00,65.3,62.1,29.38,South,180,0.0,0.0,89,0.00,,,0.00,meteohub,2013-08-15 13:07:00,
2013-08-15 06:12:00,65.3,62.1,29.38,South,180,0.0,0.0,89,0.00,,,0.00,meteohub,2013-08-15 13:12:00,
2013-08-15 06:17:00,65.3,62.1,29.38,South,180,0.0,0.0,89,0.00,,,0.00,meteohub,2013-08-15 13:17:00,
2013-08-15 06:22:00,65.3,62.1,29.38,South,180,0.0,0.0,89,0.00,,,0.00,meteohub,2013-08-15 13:22:00,
2013-08-15 06:27:00,65.3,62.1,29.38,South,180,0.0,0.0,89,0.00,,,0.00,meteohub,2013-08-15 13:27:00,
2013-08-15 06:32:00,65.3,62.1,29.38,South,180,0.0,0.0,89,0.00,,,0.00,meteohub,2013-08-15 13:32:00,
2013-08-15 06:37:00,65.5,62.2,29.38,South,180,0.0,0.0,89,0.00,,,0.00,meteohub,2013-08-15 13:37:00,
2013-08-15 06:42:00,65.7,62.2,29.38,South,180,0.0,0.0,89,0.00,,,0.00,meteohub,2013-08-15 13:42:00,
2013-08-15 06:47:00,65.8,62.4,29.38,SW,225,2.0,0.0,89,0.00,,,0.00,meteohub,2013-08-15 13:47:00,
2013-08-15 06:52:00,66.0,62.6,29.38,SW,225,2.0,2.0,89,0.00,,,0.00,meteohub,2013-08-15 13:52:00,
2013-08-15 06:57:00,66.0,62.6,29.38,SW,225,2.0,3.0,89,0.00,,,0.00,meteohub,2013-08-15 13:57:00,
2013-08-15 07:02:00,66.2,62.8,29.38,SW,225,0.0,3.0,89,0.00,,,0.00,meteohub,2013-08-15 14:02:00,
2013-08-15 07:07:00,66.4,62.8,29.39,SW,225,0.0,3.0,88,0.00,,,0.00,meteohub,2013-08-15 14:07:00,
2013-08-15 07:12:00,66.6,63.0,29.38,North,0,2.0,3.0,88,0.00,,,0.00,meteohub,2013-08-15 14:12:00,
2013-08-15 07:17:00,66.7,62.8,29.38,North,0,1.0,2.0,87,0.00,,,0.00,meteohub,2013-08-15 14:17:00,
2013-08-15 07:22:00,66.9,63.0,29.39,NE,45,2.0,2.0,87,0.00,,,0.00,meteohub,2013-08-15 14:22:00,
2013-08-15 07:27:00,66.9,63.0,29.39,NE,45,1.0,2.0,87,0.00,,,0.00,meteohub,2013-08-15 14:27:00,
2013-08-15 07:32:00,67.1,62.8,29.39,NE,45,0.0,2.0,86,0.00,,,0.00,meteohub,2013-08-15 14:32:00,
2013-08-15 07:37:00,67.1,62.8,29.39,NE,45,0.0,2.0,86,0.00,,,0.00,meteohub,2013-08-15 14:37:00,
2013-08-15 07:42:00,67.5,63.1,29.39,North,0,0.0,1.0,86,0.00,,,0.00,meteohub,2013-08-15 14:42:00,
2013-08-15 07:47:00,67.5,62.8,29.39,NE,45,0.0,0.0,85,0.00,,,0.00,meteohub,2013-08-15 14:47:00,
2013-08-15 07:53:00,67.6,63.0,29.39,NE,45,0.0,0.0,85,0.00,,,0.00,meteohub,2013-08-15 14:53:00,
2013-08-15 07:58:00,68.0,63.0,29.39,NE,45,0.0,0.0,84,0.00,,,0.00,meteohub,2013-08-15 14:58:00,
2013-08-15 08:03:00,68.4,63.0,29.39,NE,45,0.0,0.0,83,0.00,,,0.00,meteohub,2013-08-15 15:03:00,
2013-08-15 08:08:00,70.0,64.6,29.39,North,0,0.0,0.0,83,0.00,,,0.00,meteohub,2013-08-15 15:08:00,
2013-08-15 08:13:00,70.3,63.9,29.39,East,90,0.0,0.0,80,0.00,,,0.00,meteohub,2013-08-15 15:13:00,
2013-08-15 08:19:00,70.2,63.3,29.39,North,0,0.0,0.0,79,0.00,,,0.00,meteohub,2013-08-15 15:19:00,
2013-08-15 08:24:00,70.2,63.3,29.39,NE,45,0.0,0.0,79,0.00,,,0.00,meteohub,2013-08-15 15:24:00,
2013-08-15 08:29:00,70.2,63.3,29.39,NE,45,0.0,0.0,79,0.00,,,0.00,meteohub,2013-08-15 15:29:00,
2013-08-15 08:34:00,70.5,64.0,29.39,NE,45,0.0,0.0,80,0.00,,,0.00,meteohub,2013-08-15 15:34:00,
2013-08-15 08:39:00,71.2,64.4,29.39,NE,45,0.0,0.0,79,0.00,,,0.00,meteohub,2013-08-15 15:39:00,
2013-08-15 08:44:00,71.8,64.6,29.39,East,90,0.0,0.0,78,0.00,,,0.00,meteohub,2013-08-15 15:44:00,
2013-08-15 08:50:00,71.8,63.9,29.39,NE,45,2.0,0.0,76,0.00,,,0.00,meteohub,2013-08-15 15:50:00,
2013-08-15 08:55:00,72.1,64.2,29.39,North,0,2.0,3.0,76,0.00,,,0.00,meteohub,2013-08-15 15:55:00,
2013-08-15 09:00:00,73.0,64.6,29.39,South,180,2.0,4.0,75,0.00,,,0.00,meteohub,2013-08-15 16:00:00,
2013-08-15 09:05:00,73.6,65.1,29.39,East,90,2.0,4.0,75,0.00,,,0.00,meteohub,2013-08-15 16:05:00,
2013-08-15 09:10:00,73.4,64.9,29.39,SW,225,1.0,4.0,75,0.00,,,0.00,meteohub,2013-08-15 16:10:00,
2013-08-15 09:16:00,73.8,64.6,29.39,SW,225,2.0,4.0,73,0.00,,,0.00,meteohub,2013-08-15 16:16:00,
2013-08-15 09:21:00,73.2,64.8,29.39,NE,45,2.0,4.0,75,0.00,,,0.00,meteohub,2013-08-15 16:21:00,
2013-08-15 09:26:00,73.8,64.9,29.39,SW,225,3.0,4.0,74,0.00,,,0.00,meteohub,2013-08-15 16:26:00,
2013-08-15 09:31:00,73.9,64.4,29.39,SW,225,3.0,4.0,72,0.00,,,0.00,meteohub,2013-08-15 16:31:00,
2013-08-15 09:36:00,73.6,64.8,29.39,SW,225,1.0,3.0,74,0.00,,,0.00,meteohub,2013-08-15 16:36:00,
2013-08-15 09:41:00,74.5,65.7,29.39,South,180,0.0,3.0,74,0.00,,,0.00,meteohub,2013-08-15 16:41:00,
2013-08-15 09:47:00,74.7,65.1,29.39,SW,225,3.0,3.0,72,0.00,,,0.00,meteohub,2013-08-15 16:47:00,
2013-08-15 09:52:00,74.7,64.6,29.39,North,0,2.0,4.0,71,0.00,,,0.00,meteohub,2013-08-15 16:52:00,
2013-08-15 09:57:00,75.2,65.1,29.39,SW,225,2.0,4.0,71,0.00,,,0.00,meteohub,2013-08-15 16:57:00,
2013-08-15 10:02:00,75.7,65.3,29.39,East,90,2.0,4.0,70,0.00,,,0.00,meteohub,2013-08-15 17:02:00,
2013-08-15 10:07:00,75.9,64.9,29.39,West,270,0.0,2.0,69,0.00,,,0.00,meteohub,2013-08-15 17:07:00,
2013-08-15 10:12:00,76.1,65.1,29.39,SW,225,2.0,3.0,69,0.00,,,0.00,meteohub,2013-08-15 17:12:00,
2013-08-15 10:17:00,76.1,65.1,29.39,SW,225,3.0,3.0,69,0.00,,,0.00,meteohub,2013-08-15 17:17:00,
2013-08-15 10:22:00,75.2,64.8,29.39,West,270,2.0,4.0,70,0.00,,,0.00,meteohub,2013-08-15 17:22:00,
2013-08-15 10:27:00,74.7,65.1,29.39,SE,135,1.0,6.0,72,0.00,,,0.00,meteohub,2013-08-15 17:27:00,
2013-08-15 10:32:00,74.5,64.4,29.39,East,90,2.0,6.0,71,0.00,,,0.00,meteohub,2013-08-15 17:32:00,
2013-08-15 10:37:00,74.8,64.8,29.39,SW,225,2.0,3.0,71,0.00,,,0.00,meteohub,2013-08-15 17:37:00,
2013-08-15 10:42:00,74.8,65.1,29.39,SW,225,4.0,4.0,72,0.00,,,0.00,meteohub,2013-08-15 17:42:00,
2013-08-15 10:47:00,74.3,64.8,29.39,SW,225,3.0,5.0,72,0.00,,,0.00,meteohub,2013-08-15 17:47:00,
2013-08-15 10:52:00,74.1,64.9,29.39,SW,225,4.0,7.0,73,0.00,,,0.00,meteohub,2013-08-15 17:52:00,
2013-08-15 10:57:00,74.3,64.8,29.39,South,180,5.0,7.0,72,0.00,,,0.00,meteohub,2013-08-15 17:57:00,
2013-08-15 11:02:00,74.3,64.8,29.40,SW,225,4.0,7.0,72,0.00,,,0.00,meteohub,2013-08-15 18:02:00,
2013-08-15 11:07:00,74.7,65.1,29.39,SW,225,2.0,7.0,72,0.00,,,0.00,meteohub,2013-08-15 18:07:00,
2013-08-15 11:13:00,74.5,64.9,29.40,South,180,4.0,6.0,72,0.00,,,0.00,meteohub,2013-08-15 18:13:00,
2013-08-15 11:18:00,74.8,65.7,29.40,South,180,3.0,5.0,73,0.00,,,0.00,meteohub,2013-08-15 18:18:00,
2013-08-15 11:23:00,74.7,65.1,29.40,SW,225,4.0,7.0,72,0.00,,,0.00,meteohub,2013-08-15 18:23:00,
2013-08-15 11:28:00,75.2,66.0,29.40,South,180,2.0,7.0,73,0.00,,,0.00,meteohub,2013-08-15 18:28:00,
2013-08-15 11:33:00,76.5,66.7,29.40,East,90,2.0,7.0,72,0.00,,,0.00,meteohub,2013-08-15 18:33:00,
2013-08-15 11:39:00,78.1,65.8,29.40,West,270,2.0,7.0,66,0.00,,,0.00,meteohub,2013-08-15 18:39:00,
2013-08-15 11:44:00,79.3,66.0,29.39,SW,225,9.0,9.0,64,0.00,,,0.00,meteohub,2013-08-15 18:44:00,
2013-08-15 11:49:00,77.7,65.5,29.39,SW,225,7.0,7.0,66,0.00,,,0.00,meteohub,2013-08-15 18:49:00,
2013-08-15 11:55:00,77.2,65.8,29.39,East,90,2.0,9.0,68,0.00,,,0.00,meteohub,2013-08-15 18:55:00,
2013-08-15 12:00:00,77.7,65.5,29.39,SW,225,6.0,9.0,66,0.00,,,0.00,meteohub,2013-08-15 19:00:00,
2013-08-15 12:05:00,77.5,65.7,29.39,West,270,4.0,8.0,67,0.00,,,0.00,meteohub,2013-08-15 19:05:00,
2013-08-15 12:11:00,77.4,65.5,29.39,SW,225,5.0,9.0,67,0.00,,,0.00,meteohub,2013-08-15 19:11:00,
2013-08-15 12:16:00,77.7,66.4,29.39,SW,225,6.0,9.0,68,0.00,,,0.00,meteohub,2013-08-15 19:16:00,
2013-08-15 12:21:00,78.6,65.5,29.39,SW,225,9.0,9.0,64,0.00,,,0.00,meteohub,2013-08-15 19:21:00,
2013-08-15 12:27:00,78.8,65.7,29.39,SW,225,9.0,9.0,64,0.00,,,0.00,meteohub,2013-08-15 19:27:00,
2013-08-15 12:32:00,78.3,66.0,29.39,SW,225,2.0,9.0,66,0.00,,,0.00,meteohub,2013-08-15 19:32:00,
2013-08-15 12:37:00,79.9,66.6,29.39,West,270,2.0,9.0,64,0.00,,,0.00,meteohub,2013-08-15 19:37:00,
2013-08-15 12:42:00,80.1,66.4,29.39,SW,225,7.0,9.0,63,0.00,,,0.00,meteohub,2013-08-15 19:42:00,
2013-08-15 12:48:00,79.9,66.2,29.39,SW,225,3.0,8.0,63,0.00,,,0.00,meteohub,2013-08-15 19:48:00,
2013-08-15 12:53:00,80.6,65.8,29.39,SW,225,4.0,8.0,61,0.00,,,0.00,meteohub,2013-08-15 19:53:00,
2013-08-15 12:59:00,78.6,65.8,29.39,SW,225,2.0,8.0,65,0.00,,,0.00,meteohub,2013-08-15 19:59:00,
2013-08-15 13:04:00,78.1,65.8,29.39,West,270,3.0,9.0,66,0.00,,,0.00,meteohub,2013-08-15 20:04:00,
2013-08-15 13:10:00,77.2,65.8,29.39,South,180,5.0,9.0,68,0.00,,,0.00,meteohub,2013-08-15 20:10:00,
2013-08-15 13:15:00,77.0,65.7,29.40,South,180,3.0,7.0,68,0.00,,,0.00,meteohub,2013-08-15 20:15:00,
2013-08-15 13:22:00,76.6,65.3,29.39,SW,225,4.0,7.0,68,0.00,,,0.00,meteohub,2013-08-15 20:22:00,
2013-08-15 13:27:00,76.5,65.1,29.39,SW,225,4.0,7.0,68,0.00,,,0.00,meteohub,2013-08-15 20:27:00,
2013-08-15 13:32:00,76.8,65.8,29.39,SW,225,2.0,7.0,69,0.00,,,0.00,meteohub,2013-08-15 20:32:00,
2013-08-15 13:37:00,77.5,65.3,29.39,SW,225,3.0,7.0,66,0.00,,,0.00,meteohub,2013-08-15 20:37:00,
2013-08-15 13:42:00,77.7,65.8,29.40,East,90,1.0,5.0,67,0.00,,,0.00,meteohub,2013-08-15 20:42:00,
2013-08-15 13:47:00,78.3,65.5,29.39,SW,225,5.0,5.0,65,0.00,,,0.00,meteohub,2013-08-15 20:47:00,
2013-08-15 13:53:00,78.1,65.3,29.40,South,180,4.0,5.0,65,0.00,,,0.00,meteohub,2013-08-15 20:53:00,
2013-08-15 13:58:00,78.1,65.3,29.40,NW,315,2.0,7.0,65,0.00,,,0.00,meteohub,2013-08-15 20:58:00,
2013-08-15 14:04:00,78.3,65.1,29.40,South,180,4.0,7.0,64,0.00,,,0.00,meteohub,2013-08-15 21:04:00,
2013-08-15 14:09:00,78.4,66.2,29.40,South,180,1.0,7.0,66,0.00,,,0.00,meteohub,2013-08-15 21:09:00,
2013-08-15 14:13:00,79.3,65.1,29.40,NE,45,2.0,7.0,62,0.00,,,0.00,meteohub,2013-08-15 21:13:00,
2013-08-15 14:17:00,79.5,65.8,29.40,East,90,1.0,7.0,63,0.00,,,0.00,meteohub,2013-08-15 21:17:00,
2013-08-15 14:22:00,79.2,65.8,29.40,SW,225,4.0,5.0,64,0.00,,,0.00,meteohub,2013-08-15 21:22:00,
2013-08-15 14:27:00,79.0,65.8,29.40,South,180,4.0,5.0,64,0.00,,,0.00,meteohub,2013-08-15 21:27:00,
2013-08-15 14:32:00,79.2,65.8,29.40,SW,225,2.0,5.0,64,0.00,,,0.00,meteohub,2013-08-15 21:32:00,
2013-08-15 14:37:00,79.0,65.8,29.40,NW,315,2.0,6.0,64,0.00,,,0.00,meteohub,2013-08-15 21:37:00,
2013-08-15 14:42:00,79.9,66.2,29.40,East,90,2.0,6.0,63,0.00,,,0.00,meteohub,2013-08-15 21:42:00,
2013-08-15 14:47:00,80.2,65.1,29.40,SE,135,3.0,6.0,60,0.00,,,0.00,meteohub,2013-08-15 21:47:00,
2013-08-15 14:52:00,79.7,65.1,29.40,South,180,4.0,4.0,61,0.00,,,0.00,meteohub,2013-08-15 21:52:00,
2013-08-15 14:57:00,79.7,66.0,29.40,SW,225,2.0,4.0,63,0.00,,,0.00,meteohub,2013-08-15 21:57:00,
2013-08-15 15:03:00,80.8,66.0,29.40,South,180,3.0,5.0,61,0.00,,,0.00,meteohub,2013-08-15 22:03:00,
2013-08-15 15:08:00,81.5,66.2,29.40,East,90,2.0,5.0,60,0.00,,,0.00,meteohub,2013-08-15 22:08:00,
2013-08-15 15:13:00,82.4,66.6,29.40,South,180,4.0,4.0,59,0.00,,,0.00,meteohub,2013-08-15 22:13:00,
2013-08-15 15:18:00,82.0,66.7,29.40,SE,135,2.0,4.0,60,0.00,,,0.00,meteohub,2013-08-15 22:18:00,
2013-08-15 15:23:00,82.2,65.5,29.40,NE,45,2.0,4.0,57,0.00,,,0.00,meteohub,2013-08-15 22:23:00,
2013-08-15 15:28:00,82.0,64.8,29.40,NE,45,3.0,4.0,56,0.00,,,0.00,meteohub,2013-08-15 22:28:00,
2013-08-15 15:33:00,82.0,65.8,29.40,SW,225,2.0,4.0,58,0.00,,,0.00,meteohub,2013-08-15 22:33:00,
2013-08-15 15:38:00,82.2,66.0,29.39,South,180,2.0,4.0,58,0.00,,,0.00,meteohub,2013-08-15 22:38:00,
2013-08-15 15:44:00,82.0,65.8,29.39,East,90,2.0,3.0,58,0.00,,,0.00,meteohub,2013-08-15 22:44:00,
2013-08-15 15:49:00,82.0,65.8,29.39,South,180,4.0,4.0,58,0.00,,,0.00,meteohub,2013-08-15 22:49:00,
2013-08-15 15:54:00,81.0,65.8,29.39,SW,225,2.0,2.0,60,0.00,,,0.00,meteohub,2013-08-15 22:54:00,
2013-08-15 15:59:00,80.6,66.4,29.40,North,0,2.0,5.0,62,0.00,,,0.00,meteohub,2013-08-15 22:59:00,
2013-08-15 16:04:00,80.8,66.0,29.40,SE,135,1.0,5.0,61,0.00,,,0.00,meteohub,2013-08-15 23:04:00,
2013-08-15 16:09:00,80.6,65.8,29.39,NE,45,2.0,5.0,61,0.00,,,0.00,meteohub,2013-08-15 23:09:00,
2013-08-15 16:15:00,80.6,65.8,29.39,SW,225,3.0,4.0,61,0.00,,,0.00,meteohub,2013-08-15 23:15:00,
2013-08-15 16:20:00,80.6,66.9,29.39,SW,225,2.0,3.0,63,0.00,,,0.00,meteohub,2013-08-15 23:20:00,
2013-08-15 16:25:00,80.4,66.2,29.39,SW,225,4.0,4.0,62,0.00,,,0.00,meteohub,2013-08-15 23:25:00,
2013-08-15 16:30:00,79.9,66.2,29.39,SW,225,3.0,4.0,63,0.00,,,0.00,meteohub,2013-08-15 23:30:00,
2013-08-15 16:35:00,79.3,66.0,29.39,SW,225,4.0,4.0,64,0.00,,,0.00,meteohub,2013-08-15 23:35:00,
2013-08-15 16:40:00,79.0,66.2,29.39,SW,225,3.0,4.0,65,0.00,,,0.00,meteohub,2013-08-15 23:40:00,
2013-08-15 16:45:00,79.0,65.8,29.39,SW,225,3.0,4.0,64,0.00,,,0.00,meteohub,2013-08-15 23:45:00,
2013-08-15 16:51:00,79.0,66.2,29.39,South,180,4.0,4.0,65,0.00,,,0.00,meteohub,2013-08-15 23:51:00,
2013-08-15 16:56:00,78.3,66.0,29.39,SW,225,4.0,5.0,66,0.00,,,0.00,meteohub,2013-08-15 23:56:00,
2013-08-15 17:01:00,77.9,66.6,29.39,SW,225,3.0,5.0,68,0.00,,,0.00,meteohub,2013-08-16 00:01:00,
2013-08-15 17:07:00,77.4,66.4,29.39,SW,225,4.0,8.0,69,0.00,,,0.00,meteohub,2013-08-16 00:07:00,
2013-08-15 17:12:00,77.2,66.6,29.39,South,180,4.0,8.0,70,0.00,,,0.00,meteohub,2013-08-16 00:12:00,
2013-08-15 17:17:00,77.2,66.6,29.39,South,180,5.0,8.0,70,0.00,,,0.00,meteohub,2013-08-16 00:17:00,
2013-08-15 17:22:00,77.2,66.6,29.39,South,180,4.0,7.0,70,0.00,,,0.00,meteohub,2013-08-16 00:22:00,
2013-08-15 17:27:00,77.2,66.6,29.39,SW,225,4.0,5.0,70,0.00,,,0.00,meteohub,2013-08-16 00:27:00,
2013-08-15 17:32:00,77.0,66.4,29.39,SW,225,2.0,5.0,70,0.00,,,0.00,meteohub,2013-08-16 00:32:00,
2013-08-15 17:37:00,77.0,66.9,29.38,SW,225,3.0,4.0,71,0.00,,,0.00,meteohub,2013-08-16 00:37:00,
2013-08-15 17:42:00,77.0,67.3,29.39,SW,225,4.0,4.0,72,0.00,,,0.00,meteohub,2013-08-16 00:42:00,
2013-08-15 17:47:00,77.2,67.8,29.38,SW,225,2.0,4.0,73,0.00,,,0.00,meteohub,2013-08-16 00:47:00,
2013-08-15 17:52:00,77.2,67.5,29.39,South,180,4.0,4.0,72,0.00,,,0.00,meteohub,2013-08-16 00:52:00,
2013-08-15 17:57:00,76.8,67.1,29.39,South,180,3.0,4.0,72,0.00,,,0.00,meteohub,2013-08-16 00:57:00,
2013-08-15 18:02:00,76.6,66.9,29.39,SW,225,4.0,4.0,72,0.00,,,0.00,meteohub,2013-08-16 01:02:00,
2013-08-15 18:07:00,76.3,66.9,29.39,South,180,3.0,4.0,73,0.00,,,0.00,meteohub,2013-08-16 01:07:00,
2013-08-15 18:13:00,76.1,67.3,29.38,SW,225,2.0,4.0,74,0.00,,,0.00,meteohub,2013-08-16 01:13:00,
2013-08-15 18:18:00,75.9,67.1,29.38,South,180,2.0,4.0,74,0.00,,,0.00,meteohub,2013-08-16 01:18:00,
2013-08-15 18:23:00,75.6,67.1,29.38,South,180,2.0,3.0,75,0.00,,,0.00,meteohub,2013-08-16 01:23:00,
2013-08-15 18:29:00,75.2,67.1,29.38,South,180,2.0,5.0,76,0.00,,,0.00,meteohub,2013-08-16 01:29:00,
2013-08-15 18:34:00,75.0,66.9,29.38,SW,225,4.0,5.0,76,0.00,,,0.00,meteohub,2013-08-16 01:34:00,
2013-08-15 18:39:00,74.5,66.7,29.38,South,180,3.0,5.0,77,0.00,,,0.00,meteohub,2013-08-16 01:39:00,
2013-08-15 18:45:00,74.3,66.6,29.38,SW,225,2.0,5.0,77,0.00,,,0.00,meteohub,2013-08-16 01:45:00,
2013-08-15 18:50:00,74.1,66.4,29.38,SW,225,4.0,4.0,77,0.00,,,0.00,meteohub,2013-08-16 01:50:00,
2013-08-15 18:55:00,73.9,66.2,29.38,SW,225,5.0,5.0,77,0.00,,,0.00,meteohub,2013-08-16 01:55:00,
2013-08-15 19:00:00,73.6,66.4,29.38,South,180,2.0,5.0,78,0.00,,,0.00,meteohub,2013-08-16 02:00:00,
2013-08-15 19:05:00,73.4,66.6,29.38,SW,225,2.0,5.0,79,0.00,,,0.00,meteohub,2013-08-16 02:05:00,
2013-08-15 19:10:00,73.4,66.6,29.38,South,180,2.0,5.0,79,0.00,,,0.00,meteohub,2013-08-16 02:10:00,
2013-08-15 19:16:00,73.4,66.6,29.38,West,270,2.0,3.0,79,0.00,,,0.00,meteohub,2013-08-16 02:16:00,
2013-08-15 19:21:00,73.4,66.6,29.38,South,180,2.0,3.0,79,0.00,,,0.00,meteohub,2013-08-16 02:21:00,
2013-08-15 19:26:00,73.4,66.2,29.38,South,180,2.0,3.0,78,0.00,,,0.00,meteohub,2013-08-16 02:26:00,
2013-08-15 19:31:00,73.6,66.4,29.38,West,270,1.0,3.0,78,0.00,,,0.00,meteohub,2013-08-16 02:31:00,
2013-08-15 19:36:00,73.6,66.4,29.39,SW,225,4.0,4.0,78,0.00,,,0.00,meteohub,2013-08-16 02:36:00,
2013-08-15 19:41:00,73.2,66.4,29.39,SW,225,3.0,4.0,79,0.00,,,0.00,meteohub,2013-08-16 02:41:00,
2013-08-15 19:46:00,73.0,66.2,29.39,SW,225,4.0,4.0,79,0.00,,,0.00,meteohub,2013-08-16 02:46:00,
2013-08-15 19:51:00,72.9,66.0,29.39,SW,225,3.0,5.0,79,0.00,,,0.00,meteohub,2013-08-16 02:51:00,
2013-08-15 19:56:00,72.5,66.0,29.39,SW,225,4.0,5.0,80,0.00,,,0.00,meteohub,2013-08-16 02:56:00,
2013-08-15 20:01:00,72.3,65.8,29.39,SW,225,4.0,5.0,80,0.00,,,0.00,meteohub,2013-08-16 03:01:00,
2013-08-15 20:07:00,72.1,66.0,29.39,SW,225,3.0,4.0,81,0.00,,,0.00,meteohub,2013-08-16 03:07:00,
2013-08-15 20:12:00,71.8,66.0,29.39,South,180,2.0,4.0,82,0.00,,,0.00,meteohub,2013-08-16 03:12:00,
2013-08-15 20:17:00,71.4,66.0,29.39,SW,225,3.0,4.0,83,0.00,,,0.00,meteohub,2013-08-16 03:17:00,
2013-08-15 20:22:00,71.1,65.7,29.39,SW,225,2.0,3.0,83,0.00,,,0.00,meteohub,2013-08-16 03:22:00,
2013-08-15 20:27:00,70.7,65.7,29.39,SW,225,2.0,3.0,84,0.00,,,0.00,meteohub,2013-08-16 03:27:00,
2013-08-15 20:32:00,70.3,65.7,29.39,SW,225,2.0,3.0,85,0.00,,,0.00,meteohub,2013-08-16 03:32:00,
2013-08-15 20:37:00,70.0,65.7,29.39,SW,225,2.0,2.0,86,0.00,,,0.00,meteohub,2013-08-16 03:37:00,
2013-08-15 20:42:00,69.8,65.5,29.39,SW,225,2.0,2.0,86,0.00,,,0.00,meteohub,2013-08-16 03:42:00,
2013-08-15 20:47:00,69.6,65.3,29.39,SW,225,2.0,3.0,86,0.00,,,0.00,meteohub,2013-08-16 03:47:00,
2013-08-15 20:52:00,69.4,65.1,29.39,South,180,3.0,3.0,86,0.00,,,0.00,meteohub,2013-08-16 03:52:00,
2013-08-15 20:57:00,69.4,65.1,29.40,SW,225,4.0,4.0,86,0.00,,,0.00,meteohub,2013-08-16 03:57:00,
2013-08-15 21:01:00,69.3,64.9,29.40,SW,225,2.0,4.0,86,0.00,,,0.00,meteohub,2013-08-16 04:01:00,
2013-08-15 21:02:00,69.3,65.3,29.40,SW,225,2.0,4.0,87,0.00,,,0.00,meteohub,2013-08-16 04:02:00,
2013-08-15 21:03:00,69.3,65.3,29.40,SW,225,3.0,4.0,87,0.00,,,0.00,meteohub,2013-08-16 04:03:00,
2013-08-15 21:08:00,69.1,65.1,29.40,SW,225,2.0,4.0,87,0.00,,,0.00,meteohub,2013-08-16 04:08:00,
2013-08-15 21:13:00,69.1,64.8,29.41,SW,225,2.0,4.0,86,0.00,,,0.00,meteohub,2013-08-16 04:13:00,
2013-08-15 21:18:00,69.1,64.8,29.41,SW,225,3.0,7.0,86,0.00,,,0.00,meteohub,2013-08-16 04:18:00,
2013-08-15 21:23:00,68.9,64.6,29.41,South,180,2.0,7.0,86,0.00,,,0.00,meteohub,2013-08-16 04:23:00,
2013-08-15 21:28:00,68.7,64.4,29.41,SW,225,2.0,4.0,86,0.00,,,0.00,meteohub,2013-08-16 04:28:00,
2013-08-15 21:34:00,68.5,64.2,29.41,SW,225,1.0,3.0,86,0.00,,,0.00,meteohub,2013-08-16 04:34:00,
2013-08-15 21:39:00,68.5,64.6,29.41,SW,225,3.0,3.0,87,0.00,,,0.00,meteohub,2013-08-16 04:39:00,
2013-08-15 21:44:00,68.5,64.6,29.41,SW,225,3.0,3.0,87,0.00,,,0.00,meteohub,2013-08-16 04:44:00,
2013-08-15 21:49:00,68.5,64.6,29.41,SW,225,3.0,3.0,87,0.00,,,0.00,meteohub,2013-08-16 04:49:00,
2013-08-15 21:54:00,68.4,64.4,29.42,SW,225,4.0,4.0,87,0.00,,,0.00,meteohub,2013-08-16 04:54:00,
2013-08-15 21:59:00,68.2,64.2,29.41,SW,225,3.0,4.0,87,0.00,,,0.00,meteohub,2013-08-16 04:59:00,
2013-08-15 22:04:00,68.2,64.2,29.41,SW,225,2.0,5.0,87,0.00,,,0.00,meteohub,2013-08-16 05:04:00,
2013-08-15 22:09:00,67.8,63.9,29.41,SW,225,2.0,5.0,87,0.00,,,0.00,meteohub,2013-08-16 05:09:00,
2013-08-15 22:14:00,67.6,64.0,29.41,SW,225,2.0,5.0,88,0.00,,,0.00,meteohub,2013-08-16 05:14:00,
2013-08-15 22:19:00,67.5,63.9,29.41,SW,225,3.0,4.0,88,0.00,,,0.00,meteohub,2013-08-16 05:19:00,
2013-08-15 22:24:00,67.1,63.5,29.41,SW,225,1.0,4.0,88,0.00,,,0.00,meteohub,2013-08-16 05:24:00,
2013-08-15 22:30:00,66.7,63.3,29.41,SW,225,0.0,4.0,89,0.00,,,0.00,meteohub,2013-08-16 05:30:00,
2013-08-15 22:35:00,66.4,63.3,29.41,SW,225,2.0,3.0,90,0.00,,,0.00,meteohub,2013-08-16 05:35:00,
2013-08-15 22:40:00,66.2,63.1,29.42,SW,225,3.0,3.0,90,0.00,,,0.00,meteohub,2013-08-16 05:40:00,
2013-08-15 22:45:00,66.0,63.0,29.42,SW,225,2.0,2.0,90,0.00,,,0.00,meteohub,2013-08-16 05:45:00,
2013-08-15 22:50:00,66.0,63.3,29.41,SW,225,2.0,3.0,91,0.00,,,0.00,meteohub,2013-08-16 05:50:00,
2013-08-15 22:55:00,65.7,62.6,29.41,SW,225,1.0,3.0,90,0.00,,,0.00,meteohub,2013-08-16 05:55:00,
2013-08-15 23:00:00,65.7,63.0,29.41,SW,225,2.0,3.0,91,0.00,,,0.00,meteohub,2013-08-16 06:00:00,
2013-08-15 23:05:00,65.5,62.8,29.41,SW,225,2.0,3.0,91,0.00,,,0.00,meteohub,2013-08-16 06:05:00,
2013-08-15 23:10:00,65.3,62.6,29.41,SW,225,0.0,3.0,91,0.00,,,0.00,meteohub,2013-08-16 06:10:00,
2013-08-15 23:15:00,65.1,62.8,29.41,SW,225,2.0,2.0,92,0.00,,,0.00,meteohub,2013-08-16 06:15:00,
2013-08-15 23:20:00,65.1,63.0,29.41,SW,225,2.0,3.0,93,0.00,,,0.00,meteohub,2013-08-16 06:20:00,
2013-08-15 23:25:00,65.3,63.0,29.41,SW,225,2.0,3.0,92,0.00,,,0.00,meteohub,2013-08-16 06:25:00,
2013-08-15 23:30:00,65.3,63.0,29.41,South,180,2.0,3.0,92,0.00,,,0.00,meteohub,2013-08-16 06:30:00,
2013-08-15 23:35:00,65.1,62.8,29.41,South,180,0.0,3.0,92,0.00,,,0.00,meteohub,2013-08-16 06:35:00,
2013-08-15 23:40:00,64.9,62.6,29.41,South,180,0.0,3.0,92,0.00,,,0.00,meteohub,2013-08-16 06:40:00,
2013-08-15 23:45:00,64.9,62.8,29.41,SW,225,2.0,2.0,93,0.00,,,0.00,meteohub,2013-08-16 06:45:00,
2013-08-15 23:50:00,64.9,62.8,29.41,SW,225,2.0,2.0,93,0.00,,,0.00,meteohub,2013-08-16 06:50:00,
2013-08-15 23:55:00,64.9,62.8,29.41,SW,225,1.0,3.0,93,0.00,,,0.00,meteohub,2013-08-16 06:55:00,